When you browse on this site, cookies collect data to enhance your experience and personalize the content and advertising you see.
Visit our Privacy Policy to learn more. By continuing to use the site, you agree to this use of cookies and data.
  • En España
  • Lista de países
  • Para 7 días
  • Temperatura del agua
  • El tiempo en el mapa
  • Informadores
  • user-avatar
    Iniciar sesión

    Tiempo cada hora Monte Patria

    Hoy, 27 Enero, Lunes

    Tiempo Temperatura Precipitaciones Viento Presión Humedad
    00:00 +19°C° 0 mm 0 mps 722 mmHg 70%
    01:00 +19°C° 0 mm 0 mps 722 mmHg 73%
    02:00 +18°C° 0 mm 0 mps 721 mmHg 75%
    03:00 +18°C° 0 mm 0 mps 721 mmHg 77%
    04:00 +17°C° 0 mm 0 mps 721 mmHg 79%
    05:00 +20°C° 0 mm 0 mps 721 mmHg 69%
    06:00 +22°C° 0 mm 0 mps 722 mmHg 60%
    07:00 +24°C° 0 mm 0 mps 723 mmHg 51%
    08:00 +28°C° 0 mm 1 mps 722 mmHg 46%
    09:00 +30°C° 0 mm 2 mps 722 mmHg 41%
    10:00 +33°C° 0 mm 3 mps 722 mmHg 36%
    11:00 +34°C° 0 mm 4 mps 722 mmHg 35%
    12:00 +34°C° 0 mm 5 mps 722 mmHg 33%
    13:00 +35°C° 0 mm 6 mps 722 mmHg 31%
    14:00 +35°C° 0 mm 5 mps 722 mmHg 32%
    15:00 +34°C° 0 mm 5 mps 722 mmHg 33%
    16:00 +33°C° 0 mm 4 mps 721 mmHg 34%
    17:00 +30°C° 0 mm 3 mps 721 mmHg 41%
    18:00 +27°C° 0 mm 2 mps 721 mmHg 48%
    19:00 +25°C° 0 mm 1 mps 721 mmHg 56%
    20:00 +24°C° 0 mm 1 mps 721 mmHg 61%
    21:00 +20°C° 0 mm 0 mps 721 mmHg 67%
    22:00 +19°C° 0 mm 0 mps 721 mmHg 73%
    23:00 +19°C° 0 mm 0 mps 721 mmHg 75%

    Mañana, 28 Enero, Martes

    Tiempo Temperatura Precipitaciones Viento Presión Humedad
    00:00 +18°C° 0 mm 0 mps 720 mmHg 76%
    01:00 +18°C° 0 mm 0 mps 720 mmHg 78%
    02:00 +18°C° 0 mm 0 mps 720 mmHg 79%
    03:00 +17°C° 0 mm 0 mps 720 mmHg 81%
    04:00 +17°C° 0 mm 0 mps 719 mmHg 82%
    05:00 +19°C° 0 mm 0 mps 720 mmHg 73%
    06:00 +23°C° 0 mm 1 mps 721 mmHg 63%
    07:00 +26°C° 0 mm 1 mps 721 mmHg 53%
    08:00 +27°C° 0 mm 2 mps 721 mmHg 48%
    09:00 +29°C° 0 mm 3 mps 721 mmHg 43%
    10:00 +30°C° 0 mm 4 mps 722 mmHg 38%
    11:00 +32°C° 0 mm 4 mps 722 mmHg 37%
    12:00 +32°C° 0 mm 5 mps 722 mmHg 36%
    13:00 +33°C° 0 mm 5 mps 721 mmHg 34%
    14:00 +33°C° 0 mm 5 mps 721 mmHg 35%
    15:00 +32°C° 0 mm 5 mps 721 mmHg 35%
    16:00 +32°C° 0 mm 4 mps 721 mmHg 35%
    17:00 +28°C° 0 mm 3 mps 721 mmHg 45%
    18:00 +26°C° 0 mm 2 mps 721 mmHg 55%
    19:00 +23°C° 0 mm 2 mps 721 mmHg 65%
    20:00 +22°C° 0 mm 1 mps 721 mmHg 70%
    21:00 +21°C° 0 mm 1 mps 720 mmHg 75%
    22:00 +18°C° 0 mm 0 mps 720 mmHg 81%
    23:00 +18°C° 0 mm 0 mps 720 mmHg 81%

    Pasado mañana, 29 Enero, Miércoles

    Tiempo Temperatura Precipitaciones Viento Presión Humedad
    00:00 +17°C° 0 mm 0 mps 720 mmHg 82%
    01:00 +17°C° 0 mm 0 mps 719 mmHg 82%
    02:00 +17°C° 0 mm 0 mps 720 mmHg 83%
    03:00 +16°C° 0 mm 0 mps 720 mmHg 85%
    04:00 +16°C° 0 mm 0 mps 720 mmHg 86%
    05:00 +18°C° 0 mm 0 mps 720 mmHg 79%
    06:00 +21°C° 0 mm 1 mps 721 mmHg 72%
    07:00 +23°C° 0 mm 1 mps 721 mmHg 64%
    08:00 +25°C° 0 mm 2 mps 722 mmHg 57%
    09:00 +27°C° 0 mm 2 mps 722 mmHg 50%
    10:00 +29°C° 0 mm 3 mps 722 mmHg 42%
    11:00 +30°C° 0 mm 4 mps 722 mmHg 39%
    12:00 +32°C° 0 mm 5 mps 722 mmHg 36%
    13:00 +33°C° 0 mm 6 mps 722 mmHg 33%
    14:00 +32°C° 0 mm 5 mps 722 mmHg 34%
    15:00 +30°C° 0 mm 5 mps 722 mmHg 36%
    16:00 +30°C° 0 mm 5 mps 722 mmHg 38%
    17:00 +27°C° 0 mm 4 mps 722 mmHg 45%
    18:00 +25°C° 0 mm 3 mps 722 mmHg 52%
    19:00 +23°C° 0 mm 1 mps 722 mmHg 59%
    20:00 +22°C° 0 mm 1 mps 722 mmHg 64%
    21:00 +18°C° 0 mm 0 mps 722 mmHg 69%
    22:00 +17°C° 0 mm 0 mps 721 mmHg 74%
    23:00 +17°C° 0 mm 0 mps 721 mmHg 76%

    30 Enero, Jueves

    Tiempo Temperatura Precipitaciones Viento Presión Humedad
    00:00 +17°C° 0 mm 0 mps 721 mmHg 78%
    01:00 +16°C° 0 mm 0 mps 720 mmHg 80%
    02:00 +16°C° 0 mm 0 mps 720 mmHg 80%
    03:00 +16°C° 0 mm 0 mps 720 mmHg 80%
    04:00 +15°C° 0 mm 0 mps 720 mmHg 81%
    05:00 +18°C° 0 mm 0 mps 721 mmHg 71%
    06:00 +20°C° 0 mm 0 mps 721 mmHg 60%
    07:00 +22°C° 0 mm 0 mps 721 mmHg 50%
    08:00 +26°C° 0 mm 1 mps 722 mmHg 45%
    09:00 +28°C° 0 mm 2 mps 722 mmHg 39%
    10:00 +31°C° 0 mm 3 mps 722 mmHg 33%
    11:00 +32°C° 0 mm 4 mps 722 mmHg 32%
    12:00 +33°C° 0 mm 5 mps 722 mmHg 31%
    13:00 +34°C° 0 mm 6 mps 722 mmHg 29%
    14:00 +33°C° 0 mm 5 mps 722 mmHg 31%
    15:00 +33°C° 0 mm 5 mps 722 mmHg 33%
    16:00 +32°C° 0 mm 4 mps 721 mmHg 35%
    17:00 +28°C° 0 mm 3 mps 721 mmHg 41%
    18:00 +26°C° 0 mm 2 mps 721 mmHg 47%
    19:00 +24°C° 0 mm 1 mps 721 mmHg 54%
    20:00 +22°C° 0 mm 1 mps 721 mmHg 60%
    21:00 +19°C° 0 mm 0 mps 721 mmHg 66%
    22:00 +17°C° 0 mm 0 mps 721 mmHg 72%
    23:00 +17°C° 0 mm 0 mps 721 mmHg 74%

    31 Enero, Viernes

    Tiempo Temperatura Precipitaciones Viento Presión Humedad
    00:00 +17°C° 0 mm 0 mps 721 mmHg 76%
    01:00 +16°C° 0 mm 0 mps 720 mmHg 77%
    02:00 +16°C° 0 mm 0 mps 720 mmHg 79%
    03:00 +16°C° 0 mm 0 mps 720 mmHg 80%
    04:00 +15°C° 0 mm 0 mps 720 mmHg 81%
    05:00 +18°C° 0 mm 0 mps 721 mmHg 71%
    06:00 +20°C° 0 mm 0 mps 722 mmHg 61%
    07:00 +24°C° 0 mm 1 mps 722 mmHg 51%
    08:00 +26°C° 0 mm 2 mps 722 mmHg 46%
    09:00 +28°C° 0 mm 2 mps 723 mmHg 40%
    10:00 +30°C° 0 mm 3 mps 723 mmHg 35%
    11:00 +32°C° 0 mm 4 mps 723 mmHg 33%
    12:00 +33°C° 0 mm 5 mps 722 mmHg 31%
    13:00 +34°C° 0 mm 5 mps 722 mmHg 29%
    14:00 +33°C° 0 mm 5 mps 722 mmHg 31%
    15:00 +33°C° 0 mm 4 mps 722 mmHg 32%
    16:00 +32°C° 0 mm 4 mps 721 mmHg 34%
    17:00 +29°C° 0 mm 3 mps 721 mmHg 41%
    18:00 +26°C° 0 mm 2 mps 722 mmHg 48%
    19:00 +23°C° 0 mm 1 mps 722 mmHg 55%
    20:00 +22°C° 0 mm 1 mps 722 mmHg 62%
    21:00 +19°C° 0 mm 0 mps 721 mmHg 68%
    22:00 +17°C° 0 mm 0 mps 721 mmHg 74%
    23:00 +17°C° 0 mm 0 mps 721 mmHg 76%

    1 Febrero, Sábado

    Tiempo Temperatura Precipitaciones Viento Presión Humedad
    00:00 +17°C° 0 mm 0 mps 720 mmHg 77%
    01:00 +17°C° 0 mm 0 mps 720 mmHg 78%
    02:00 +16°C° 0 mm 0 mps 720 mmHg 80%
    03:00 +16°C° 0 mm 0 mps 720 mmHg 81%
    04:00 +15°C° 0 mm 0 mps 720 mmHg 82%
    05:00 +17°C° 0 mm 0 mps 720 mmHg 75%
    06:00 +19°C° 0 mm 0 mps 720 mmHg 68%
    07:00 +23°C° 0 mm 1 mps 721 mmHg 60%
    08:00 +25°C° 0 mm 1 mps 721 mmHg 54%
    09:00 +27°C° 0 mm 2 mps 721 mmHg 47%
    10:00 +29°C° 0 mm 3 mps 722 mmHg 41%
    11:00 +30°C° 0 mm 4 mps 721 mmHg 37%
    12:00 +32°C° 0 mm 5 mps 721 mmHg 33%
    13:00 +34°C° 0 mm 5 mps 721 mmHg 29%
    14:00 +33°C° 0 mm 5 mps 721 mmHg 30%
    15:00 +32°C° 0 mm 5 mps 721 mmHg 31%
    16:00 +32°C° 0 mm 4 mps 721 mmHg 32%
    17:00 +28°C° 0 mm 3 mps 721 mmHg 39%
    18:00 +25°C° 0 mm 3 mps 721 mmHg 46%
    19:00 +23°C° 0 mm 2 mps 721 mmHg 54%
    20:00 +21°C° 0 mm 1 mps 721 mmHg 61%
    21:00 +20°C° 0 mm 1 mps 721 mmHg 68%
    22:00 +16°C° 0 mm 0 mps 721 mmHg 76%
    23:00 +16°C° 0 mm 0 mps 721 mmHg 77%
    Mostrar más